#timestamp,LO_Frequency,Hit,StdDev 
1625410815.5,286047002.6,N
1625410835.3,286046999.9,N
1625410855.1,286047002.3,N
1625410875.9,286047000.4,N
1625410895.7,286047000.0,N
1625410915.6,286047002.8,N
1625410935.4,286047002.8,N
1625410955.2,286047002.1,N
1625410975.1,286047002.4,N
1625410976.0,286047002.4,N
1625410995.8,286047002.7,N
1625411015.6,286047002.7,N
1625411035.5,286046999.8,N
1625411055.3,286047002.8,N
1625411075.2,286047002.6,N
1625411095.9,286047000.3,N
1625411115.7,286046999.9,N
1625411135.6,286047000.4,N
1625411155.4,286047001.9,N
1625411175.2,286047002.6,N
1625411195.1,286047002.8,N
1625411196.0,286047002.8,N
1625411215.8,286047002.5,N
1625411235.7,286047002.5,N
1625411255.5,286047002.4,N
1625411275.3,286046998.2,N
1625411295.2,286046998.5,N
1625411315.0,286047000.9,N
1625411315.9,286047000.9,N
1625411335.8,286047001.1,N
1625411355.6,286047000.9,N
1625411375.4,286047001.0,N
1625411395.3,286046998.3,N
1625411415.1,286046998.6,N
1625411435.8,286046998.3,N
1625411455.7,286046998.4,N
1625411475.5,286047000.3,N
1625411495.4,286046999.7,N
1625411515.2,286047001.2,N
1625411535.0,286047000.7,N
1625411535.9,286047000.7,N
1625411555.8,286046998.6,N
1625411575.6,286046998.2,N
1625411595.5,286046999.9,N
1625411615.3,286047000.5,N
1625411635.1,286047000.2,N
1625411655.9,286046999.9,N
1625411675.7,286047000.1,N
1625411695.5,286046999.7,N
1625411715.4,286046998.1,N
1625411735.2,286046998.5,N
1625411755.1,286047000.7,N
1625411756.0,286047000.7,N
1625411775.8,286047000.8,N
1625411795.6,286047000.7,N
1625411815.5,286047001.1,N
1625411835.3,286047001.2,N
1625411855.2,286046999.8,N
1625411875.9,286047002.6,N
1625411895.7,286046999.9,N
1625411915.6,286047000.7,N
1625411935.4,286047000.0,N
1625411955.3,286047001.4,N
1625411975.1,286047004.2,Y
1625411976.0,286047004.2,P
1625411995.8,286047005.5,N
1625412015.7,286047007.5,P
1625412035.5,286047004.8,N
1625412055.3,286047005.9,N
1625412075.2,286047002.9,N
1625412095.0,286047003.4,N
1625412095.9,286047003.4,N
1625412115.8,286047005.9,N
1625412135.6,286047003.9,N
1625412155.4,286047003.7,N
1625412175.3,286047003.2,N
1625412195.1,286047003.6,N
1625412215.9,286047005.4,Y
1625412235.7,286047000.6,P
1625412255.5,286047000.9,N
1625412275.4,286047000.7,N
1625412295.2,286047000.7,N
1625412315.0,286047000.3,N
1625412316.0,286047000.3,N
1625412335.8,286047000.4,N
1625412355.6,286047000.7,N
1625412375.5,286047011.9,Y
1625412395.3,286046996.7,P
1625412415.1,286046996.9,N
1625412435.9,286046999.6,N
1625412455.7,286046997.9,N
1625412475.6,286046997.9,N
1625412495.4,286046997.4,N
1625412515.2,286046995.0,Y
1625412535.1,286046999.5,P
1625412536.0,286046999.5,N
1625412555.8,286046999.6,N
1625412575.7,286046996.6,Y
1625412595.5,286046999.0,P
1625412615.3,286046998.4,P
1625412635.2,286046997.6,P
1625412655.0,286046995.8,Y
1625412655.9,286046995.8,P
1625412675.7,286046996.0,N
1625412695.6,286046993.9,P
1625412715.4,286046994.2,Y
1625412735.3,286046997.0,P
1625412755.1,286046998.8,N
1625412775.8,286047001.1,N
1625412795.7,286046998.5,N
1625412815.5,286046998.8,N
1625412835.4,286046999.0,N
1625412855.2,286046996.6,N
1625412875.0,286046997.7,N
1625412875.9,286046997.7,N
1625412895.8,286046997.4,N
1625412915.6,286046996.7,N
1625412935.5,286046996.8,N
1625412955.3,286046996.8,N
1625412975.1,286046996.5,N
1625412995.9,286046999.5,N
1625413015.7,286046999.1,N
1625413035.5,286046997.3,N
1625413055.4,286046997.2,N
1625413075.2,286046996.8,N
1625413095.0,286046996.9,N
1625413095.9,286046996.9,N
1625413115.8,286046996.9,N
1625413135.6,286046996.6,N
1625413155.5,286046998.7,N
1625413175.3,286046996.8,N
1625413195.1,286046999.1,N
1625413215.9,286046999.4,N
1625413235.7,286046996.9,N
1625413255.5,286046999.4,N
1625413275.4,286046998.9,N
1625413295.2,286046999.2,N
1625413315.1,286046998.5,N
1625413316.0,286046998.5,N
1625413335.8,286047000.7,N
1625413355.6,286047000.0,N
1625413375.5,286047001.1,N
1625413395.3,286046998.3,N
1625413415.1,286046998.1,N
1625413435.9,286046998.6,N
1625413455.7,286047000.4,N
1625413475.6,286047000.0,N
1625413495.4,286047000.2,N
1625413515.2,286047000.8,N
1625413535.1,286046999.4,N
1625413536.0,286046999.4,N
1625413555.8,286047000.8,N
1625413575.7,286047000.5,N
1625413595.5,286047000.9,N
1625413615.3,286047000.2,N
1625413635.2,286047000.4,N
1625413655.0,286047000.7,N
1625413655.9,286047011.9,Y
1625413675.8,286046999.7,P
1625413695.6,286047002.1,P
1625413715.4,286047002.2,N
1625413735.3,286047001.9,N
1625413755.1,286047002.0,N
1625413775.8,286047001.7,N
1625413795.7,286047001.6,N
1625413815.5,286047002.2,N
1625413835.3,286047002.2,N
1625413855.2,286047002.1,N
1625413875.0,286047004.2,Y
1625413875.9,286047004.2,P
1625413895.8,286046999.8,N
1625413915.6,286047002.5,N
1625413935.4,286047002.0,N
1625413955.3,286047001.4,N
1625413975.1,286047003.2,N
1625413995.9,286047003.6,N
1625414015.7,286047002.0,N
1625414035.5,286047002.3,N
1625414055.4,286047002.0,N
1625414075.2,286047002.7,N
1625414095.0,286047002.4,N
1625414095.9,286047002.4,N
1625414115.8,286047004.0,Y
1625414135.6,286047002.8,P
1625414155.5,286047002.8,P
1625414175.3,286047000.9,P
1625414195.1,286047000.7,N
1625414215.9,286046998.3,N
1625414235.7,286047000.1,N
1625414255.5,286047000.8,N
1625414275.4,286047001.5,N
1625414295.2,286047002.5,N
1625414315.1,286047002.5,N
1625414316.0,286047002.5,N
1625414335.8,286047000.5,N
1625414355.6,286046999.7,N
1625414375.5,286047002.0,N
1625414395.3,286047002.3,N
